This is the latest recevied weather packets stored in our database for station/object RV1CJ-14. If no packets are shown the sender has not sent any weather packets the latest 10 day(s).
| Time | Temp. | Humidity | Pressure | Rain* | Wind** | Luminosity | Snow |
|---|---|---|---|---|---|---|---|
| 1777632603 | 12.78° C | 63% | 1016.5 hPa | 0 mm | - | 153 W/m² | - |
| 1777632003 | 12.78° C | 63% | 1016.7 hPa | 0 mm | - | 229 W/m² | - |
| 1777631403 | 12.78° C | 64% | 1016.7 hPa | 0 mm | - | 218 W/m² | - |
| 1777630803 | 12.22° C | 66% | 1016.9 hPa | 0 mm | - | 160 W/m² | - |
| 1777630203 | 12.22° C | 66% | 1016.9 hPa | 0 mm | - | 156 W/m² | - |
| 1777629604 | 11.67° C | 65% | 1017 hPa | 0 mm | - | 163 W/m² | - |
| 1777629003 | 12.22° C | 66% | 1017.1 hPa | 0 mm | - | 141 W/m² | - |
| 1777628403 | 11.67° C | 67% | 1017.1 hPa | 0 mm | - | 183 W/m² | - |
| 1777627803 | 11.67° C | 67% | 1017.1 hPa | 0 mm | - | 171 W/m² | - |
| 1777627203 | 11.67° C | 68% | 1017.2 hPa | 0 mm | - | 121 W/m² | - |
| 1777626603 | 11.67° C | 68% | 1017.2 hPa | 0 mm | - | 163 W/m² | - |
| 1777626003 | 11.67° C | 69% | 1017.3 hPa | 0 mm | - | 160 W/m² | - |
| 1777625404 | 11.11° C | 70% | 1017.3 hPa | 0 mm | - | 185 W/m² | - |
| 1777624803 | 11.11° C | 70% | 1017.4 hPa | 0 mm | - | 90 W/m² | - |
| 1777624203 | 11.11° C | 70% | 1017.3 hPa | 0 mm | - | 192 W/m² | - |
| 1777623603 | 10.56° C | 71% | 1017.3 hPa | 0 mm | - | 260 W/m² | - |
| 1777623003 | 10.56° C | 69% | 1017.3 hPa | 0 mm | - | 139 W/m² | - |
| 1777622403 | 11.11° C | 69% | 1017.3 hPa | 0 mm | - | 123 W/m² | - |
| 1777621803 | 10.56° C | 70% | 1017.4 hPa | 0 mm | - | 163 W/m² | - |
| 1777621203 | 11.11° C | 70% | 1017.5 hPa | 0 mm | - | 134 W/m² | - |
| 1777620603 | 10.56° C | 70% | 1017.4 hPa | 0 mm | - | 218 W/m² | - |
| 1777620003 | 10.56° C | 70% | 1017.4 hPa | 0 mm | - | 178 W/m² | - |
| 1777619403 | 10.56° C | 70% | 1017.5 hPa | 0 mm | - | 221 W/m² | - |
| 1777618803 | 11.11° C | 69% | 1017.4 hPa | 0 mm | - | 216 W/m² | - |
| 1777618203 | 11.11° C | 70% | 1017.3 hPa | 0 mm | - | 327 W/m² | - |
* Rain latest hour (hover to see other rain measurements)
** Current wind speed in m/s (hover to see current wind gust speed)